NEE-01 PEGASO

Last updated on Fri Jul 11 2025 00:03:41 GMT+0000 (Coordinated Universal Time)

1 39151U 13018B 25191.59114832 .00001545 00000+0 16225-3 0 9996 2 39151 98.0772 321.1430 0012831 202.6122 157.4531 14.90964549659757
UTC large
Height (km)
Speed (km/s)
/
Latitude / Longitude
Inclination (degrees)
Orbital Period (minutes)
Azimuth
Elevation
Range (km)
Doppler Factor

Next 0 passes for location: London (51.5072 / 0.1276)

Sorry there are no passes over London.